Location: Karcze
(52.0945°N, 22.4786°E)
Time: 23:32:54
(UTC+00:00)

Transit 4A - Pass Details

Date: 04 August 2021
Orbit: 871 x 974 km, 66.8° (Epoch: 18 September)

Event Time Altitude Azimuth Distance (km) Brightness Sun altitude
Exits shadow 21:29:38 36° 167° (SSE) 1,369 8.2 -19.4°
Maximum altitude 21:31:33 49° 119° (ESE) 1,120 8.0 -19.5°
Drops below altitude 10° 21:37:08 10° 46° (NE) 2,528 10.5 -19.7°
Sets 21:39:40 0° 41° (NE) 3,471 11.4 -19.8°
